Jackson, KY

10:33 PM EDT on May 27, 2018 (GMT -0400)
Carroll

Weather History for KJKL - July, 2013

Change the Weather History Date:

Thursday, July 25, 2013

  Actual Average Record
Temperature  
Mean Temperature 68 °F 75 °F  
Max Temperature 77 °F 85 °F 97 °F (1993)
Min Temperature 59 °F 66 °F 59 °F (2003)
Degree Days  
Heating Degree Days 0 0  
Month to date heating degree days 0 0  
Since 1 June heating degree days 0 12  
Since 1 July heating degree days 0 0  
Cooling Degree Days 3 10  
Month to date cooling degree days 250 256  
Year to date cooling degree days 622 615  
Since 1 June cooling degree days 474 479  
Growing Degree Days 18 (Base 50)    
Moisture  
Dew Point 58 °F    
Average Humidity 76    
Maximum Humidity 97    
Minimum Humidity 54    
Precipitation  
Precipitation 0.00 in 0.15 in 2.02 in (2004)
Month to date precipitation 6.16 3.75  
Year to date precipitation 32.72 28.96  
Snow  
Snow 0.00 in 0.00 in - ()
Month to date snowfall 0.0 0.0  
Since 1 June snowfall 0.0 0.0  
Since 1 July snowfall 0.0 0.0  
Snow Depth 0.00 in    
Sea Level Pressure  
Sea Level Pressure 30.01 in    
Wind  
Wind Speed 0 mph (North)    
Max Wind Speed 6 mph    
Max Gust Speed 10 mph    
Visibility 10 miles    
Events      
T = Trace of Precipitation, MM = Missing Value Source: NWS Daily Summary

Daily Weather History Graph

Daily Weather History Graph

Search for Another Location

Airport or City:

Astronomy

Jul. 25, 2013 Rise Set
Actual Time 6:31 AM EDT 8:47 PM EDT
Civil Twilight 6:02 AM EDT 9:16 PM EDT
Nautical Twilight 5:25 AM EDT 9:53 PM EDT
Astronomical Twilight 4:46 AM EDT 10:32 PM EDT
Moon 10:33 PM EDT (7/25) 9:54 AM EDT (7/25)
Length of Visible Light 15h 14m
Length of Day
14h 15m
Waning Gibbous, 88% of the Moon is Illuminated
Jul 25
Waning Gibbous
Jul 29
Last Quarter
Aug 6
New
Aug 14
First Quarter
Aug 20
Full

Hourly Weather History & Observations

Time (EDT) Temp. Dew Point Humidity Pressure Visibility Wind Dir Wind Speed Gust Speed Precip Events Conditions
12:53 AM 64.9 °F 61.0 °F 87% 29.95 in 10.0 mi Calm Calm - N/A   Clear
1:53 AM 64.0 °F 60.1 °F 87% 29.95 in 10.0 mi Calm Calm - N/A   Partly Cloudy
2:53 AM 63.0 °F 60.1 °F 90% 29.95 in 9.0 mi Calm Calm - N/A   Clear
3:53 AM 62.1 °F 59.0 °F 90% 29.94 in 10.0 mi Calm Calm - N/A   Clear
4:53 AM 61.0 °F 59.0 °F 93% 29.95 in 9.0 mi Calm Calm - N/A   Clear
5:53 AM 60.1 °F 57.9 °F 93% 29.96 in 9.0 mi Calm Calm - N/A   Clear
6:53 AM 60.1 °F 57.9 °F 93% 29.98 in 7.0 mi Calm Calm - N/A   Clear
7:53 AM 62.1 °F 59.0 °F 90% 30.00 in 10.0 mi Calm Calm - N/A   Clear
8:53 AM 64.0 °F 59.0 °F 84% 30.00 in 10.0 mi Calm Calm - N/A   Clear
9:53 AM 68.0 °F 60.1 °F 76% 30.01 in 10.0 mi Variable 3.5 mph - N/A   Clear
10:53 AM 70.0 °F 60.1 °F 71% 30.02 in 10.0 mi Calm Calm - N/A   Partly Cloudy
11:53 AM 72.0 °F 57.9 °F 61% 30.03 in 10.0 mi Calm Calm - N/A   Mostly Cloudy
12:53 PM 73.0 °F 59.0 °F 61% 30.04 in 10.0 mi Calm Calm - N/A   Partly Cloudy
1:53 PM 73.0 °F 57.9 °F 59% 30.03 in 10.0 mi Calm Calm - N/A   Mostly Cloudy
2:53 PM 75.9 °F 60.1 °F 58% 30.03 in 10.0 mi Calm Calm - N/A   Mostly Cloudy
3:53 PM 75.0 °F 57.0 °F 53% 30.03 in 10.0 mi Calm Calm - N/A   Partly Cloudy
4:53 PM 77.0 °F 59.0 °F 54% 30.03 in 10.0 mi Calm Calm - N/A   Scattered Clouds
5:53 PM 73.9 °F 57.0 °F 55% 30.05 in 10.0 mi Calm Calm - N/A   Clear
6:53 PM 73.9 °F 57.9 °F 57% 30.05 in 10.0 mi Calm Calm - N/A   Clear
7:53 PM 72.0 °F 57.0 °F 59% 30.06 in 10.0 mi Calm Calm - N/A   Clear
8:53 PM 66.9 °F 57.9 °F 73% 30.06 in 10.0 mi Calm Calm - N/A   Clear
9:53 PM 66.0 °F 57.0 °F 73% 30.07 in 10.0 mi Calm Calm - N/A   Clear
10:53 PM 64.9 °F 55.9 °F 73% 30.08 in 10.0 mi Calm Calm - N/A   Clear
11:53 PM 64.9 °F 55.9 °F 73% 30.08 in 10.0 mi Calm Calm - N/A   Clear